Regional Weather Roundup
Issued by NWS Jackson, KY

Home | Current Version | Previous Version | Graphics & Text | Print | Product List | Glossary On
Versions: 1 2 3 4 5 6 7 8 9 10 11 12 13 14 15 16 17 18 19 20 21 22 23 24 25 26 27 28 29 30 31 32 33 34 35 36 37 38 39 40 41 42 43 44 45 46 47 48 49 50
000
ASUS43 KJKL 162110
RWRJKL

EAST KENTUCKY HOURLY WEATHER ROUNDUP
NATIONAL WEATHER SERVICE JACKSON KY
400 PM EST TUE JAN 16 2018

NOTE: "FAIR" INDICATES FEW OR NO CLOUDS BELOW 12,000 FEET WITH
NO SIGNIFICANT WEATHER AND/OR OBSTRUCTIONS TO VISIBILITY.

* THESE REPORTS ARE NOT UNDER NWS QUALITY CONTROL AND MAY NOT
  REPORT WEATHER SUCH AS PRECIPITATION AND FOG.

KYZ079-080-083-085-087-088-110-112-115-119-120-162200
...EASTERN KENTUCKY...

CITY           SKY/WX    TMP DP  RH WIND       PRES   REMARKS
JACKSON        SNOW      14   9  80 W6        30.42R WCI   5
LONDON         LGT SNOW  14   8  77 W8        30.46R WCI   3
SOMERSET*      LGT SNOW  12   7  79 N12G17    30.53R WCI  -2
MONTICELLO*    LGT SNOW  13   8  81 VRB6      30.53R WCI   4
WILLIAMSBURG*  CLOUDY    14  10  85 CALM      30.46R VSB 1
MIDDLESBORO*   FLURRIES  22  17  81 CALM      30.43R
HARLAN APT*    CLOUDY    21  16  79 SW6       30.39R WCI  14
PIKE CO APT*   LGT SNOW  18  17  96 NW8       30.39R WCI   8
BIG SANDY APT* LGT SNOW  19  16  89 NW5       30.42R WCI  12
MOREHEAD APT*  MOCLDY    12   3  67 W8        30.49R WCI   1
ASHLAND*       LGT SNOW  19  13  77 NW9       30.49R WCI   8
$$

KYZ035-036-041-042-044-050-067-078-099-162200
...CENTRAL KENTUCKY...

CITY           SKY/WX    TMP DP  RH WIND       PRES   REMARKS
MT STERLING*   FLURRIES  12   5  73 NW7       30.50R WCI   2
FLEMING/MASON*   N/A     11   3  71 W8        30.49S WCI  -1
DANVILLE*        N/A     12   3  67 NW8       30.52R WCI   1
LEXINGTON        N/A     12   2  64 NW8       30.50R WCI   0
FRANKFORT        N/A     12  -1  56 W7        30.51R WCI   1
LOUISVILLE       N/A     14   1  56 W8        30.56R WCI   3
LEBANON*       CLOUDY    10   1  67 W6        30.53R WCI   1
GLASGOW*         N/A     14   3  60 W8        30.55S WCI   3
BOWLING GREEN    N/A     13   1  59 W7        30.59R WCI   3
$$

KYZ091>093-OHZ055-061-077-WVZ005-015-034-035-042-162200
...SOUTHERN OHIO/WEST VIRGINIA...

CITY           SKY/WX    TMP DP  RH WIND       PRES   REMARKS
COVINGTON        N/A     11   1  64 W6        30.48R WCI   1
COLUMBUS         N/A     10   1  67 W6        30.45R WCI   0
DAYTON           N/A      6   0  76 W12       30.46R WCI  -9
WILMINGTON     PTSUNNY    9   0  67 W12       30.45R WCI  -6
HUNTINGTON     SNOW      17  13  84 W5        30.45R VSB 1/2 WCI  10
CHARLESTON     LGT SNOW  19  14  81 NW8       30.41R VSB 1   WCI   9
BECKLEY        LGT SNOW  29  26  89 N10       30.24R FOG     WCI  20
BLUEFIELD      CLOUDY    34  24  67 W7        30.22R WCI  28
LOGAN CO APT*  LGT SNOW  21  19  93 CALM      30.35R
$$

VAZ002-007-008-TNZ017-027-036-066-071-162200
...SOUTHWEST VIRGINIA/EAST TENNESSEE...

CITY           SKY/WX    TMP DP  RH WIND       PRES   REMARKS
WISE*          LGT SNOW  23  23 100 N6        30.28R WCI  16
JONESVILLE*    LGT SNOW  25  23  93 W3        30.38R VSB 3/4
ABINGDON*      CLOUDY    40  28  60 W6        30.25S
BRISTOL        CLOUDY    42  27  55 SW8       30.27S
MORRISTOWN*    FOG       27  27 100 N10       30.33R VSB 1   WCI  17
SEVIERVILLE*   FOG       27  25  93 NW12      30.37R VSB 1/4 WCI  16
KNOXVILLE      SNOW      26  25  96 N6        30.39R VSB 1/2 WCI  19
LAFOLLETTE*    CLOUDY    21  14  73 CALM      30.45R
OAK RIDGE      LGT SNOW  26  22  84 CALM      30.41R FOG
CROSSVILLE     LGT SNOW  14   9  80 NW9       30.39R WCI   2
NASHVILLE      PTSUNNY   15   4  61 NW8       30.58R WCI   4
$$

...KEY TO REMARKS...
VSB - VISIBILITY IN MILES
WCI - WIND CHILL INDEX
HX  - HEAT INDEX

$$



USA.gov is the U.S. government's official web portal to all federal, state and local government web resources and services.